Location: Tehran
(35.6961°N, 51.4231°E)
Time: 11:51:11
(UTC+03:30)

ISS - Visible Passes

Search period start: 14 December 2017 00:00
Search period end: 24 December 2017 00:00
Orbit: 402 x 406 km, 51.6° (Epoch: 14 December)

Date Brightness Start Highest point End Pass type
(mag) Time Alt. Az. Time Alt. Az. Time Alt. Az.
14 Dec -3.4 18:13:54 10° NW 18:17:00 40° NE 18:17:00 40° NE visible
15 Dec -2.5 17:21:58 10° NNW 17:24:39 23° NNE 17:27:19 10° E visible
15 Dec -1.9 18:58:11 10° WNW 19:00:39 30° WSW 19:00:39 30° WSW visible
16 Dec -3.6 18:05:42 10° NW 18:08:58 72° SW 18:12:05 11° SE visible
17 Dec -0.5 18:51:29 10° WSW 18:52:48 12° SW 18:54:06 10° SSW visible
18 Dec -1.3 17:57:58 10° WNW 18:00:42 24° SW 18:03:24 10° S visible
